[Iaude] MPEC P96: 2020 PV2 [a=1.26,e=0.21,i=4.5,H=27.5]

mpec at marsden.cfa.harvard.edu mpec at marsden.cfa.harvard.edu
Fri Aug 14 22:15:01 EDT 2020


M.P.E.C. 2020-P96                               Issued 2020 August 15, 02:13 UT

     The Minor Planet Electronic Circulars contain information on unusual
         minor planets and routine data on comets.  They are published
    on behalf of Division F of the International Astronomical Union by the
          Minor Planet Center, Smithsonian Astrophysical Observatory,
                          Cambridge, MA 02138, U.S.A.

             Prepared using the Tamkin Foundation Computer Network

                              MPC at CFA.HARVARD.EDU
            URL https://www.minorplanetcenter.net/    ISSN 1523-6714

                                    2020 PV2                                    


Observations:
     K20P02V  C2020 08 12.41326522 47 16.830-03 50 58.39         21.35GVEP096F52
     K20P02V  C2020 08 12.42493122 47 14.056-03 48 58.26         21.23GVEP096F52
     K20P02V  C2020 08 12.43664522 47 11.239-03 46 56.95         20.94GVEP096F52
     K20P02V  C2020 08 13.41194022 45 26.561-01 13 29.67         21.19wUEP096F51
     K20P02V* C2020 08 13.41322222 45 26.290-01 13 18.58         20.97wUEP096F51
     K20P02V  C2020 08 13.42369622 45 24.085-01 11 49.07         20.85wUEP096F51
     K20P02V  C2020 08 13.42497922 45 23.817-01 11 38.17         20.76wUEP096F51
     K20P02V  C2020 08 13.43542822 45 21.567-01 10 08.72         21.08wUEP096F51
     K20P02V  C2020 08 13.43671222 45 21.303-01 09 57.75         20.86wUEP096F51
     K20P02V  C2020 08 13.44715922 45 19.029-01 08 28.62         21.13wUEP096F51
     K20P02V  C2020 08 13.44844822 45 18.753-01 08 17.60         20.71wUEP096F51
     K20P02V ^C2020 08 14.47986922 43 37.757+01 05 18.25         21.04GVEP096568
     K20P02V ^C2020 08 14.48082322 43 37.569+01 05 24.98         21.06GVEP096568
     K20P02V ^C2020 08 14.48251622 43 37.234+01 05 36.95         21.02GVEP096568
     K20P02V ^C2020 08 14.48358922 43 37.022+01 05 44.51         21.05GVEP096568

Observer details:
568 Mauna Kea.  Observers R. Wainscoat, C. Wipper, T. Burdullis.  Measurers R.
    Weryk, R. Wainscoat.  3.6-m Canada-France-Hawaii Telescope + CCD.
F51 Pan-STARRS 1, Haleakala.  Observers J. Bulger, T. Lowe, A. Schultz, M.
    Willman.  Measurers K. Chambers, S. Chastel, T. de Boer, L. Denneau, J.
    Fairlamb, H. Flewelling, M. Huber, C.-C. Lin, E. Magnier, Y. Ramanjooloo,
    R. Wainscoat, R. Weryk.  1.8-m Ritchey-Chretien + CCD.
F52 Pan-STARRS 2, Haleakala.  Observers J. Bulger, K. Chambers, T. Dukes, T.
    Lowe, A. Schultz, M. Willman.  Measurers S. Chastel, M. Huber, Y.
    Ramanjooloo, R. Wainscoat, R. Weryk.  1.8-m Ritchey-Chretien + CCD.

Orbital elements:
2020 PV2                                                 Earth MOID = 0.0125 AU
Epoch 2020 May 31.0 TT = JDT 2459000.5                  Veres
M 335.79291              (2000.0)            P               Q
n   0.69523990     Peri.  319.65834     +0.16226587     +0.98546401
a   1.2619619      Node   319.60660     -0.88415959     +0.12257273
e   0.2136714      Incl.    4.45209     -0.43810000     +0.11762913
P   1.42           H   27.5           G   0.15           U   6
Residuals in seconds of arc
200812 F52  0.2-  0.3+    200813 F51  0.0   0.1-    200813 F51  0.0   0.1+
200812 F52  0.1-  0.3-    200813 F51  0.1+  0.1-    200814 568  0.1-  0.0
200812 F52  0.1+  0.0     200813 F51  0.1-  0.0     200814 568  0.1-  0.0
200813 F51  0.0   0.0     200813 F51  0.1+  0.0     200814 568  0.1-  0.0
200813 F51  0.1-  0.1+    200813 F51  0.0   0.0     200814 568  0.1-  0.0

Ephemeris:
2020 PV2                 a,e,i = 1.26, 0.21, 4                   q = 0.9923
Date    TT    R. A. (2000) Decl.     Delta      r    Elong.  Phase     V
2020 07 16    10 20 06.1 -34 26 43   0.05541 0.9963    67.3   109.8    25.4
...
2020 07 31    09 27 00.2 -66 40 57   0.01730 1.0138    85.4    93.6    22.1
...
2020 08 08    23 01 38.7 -25 09 44   0.01602 1.0283   153.0    26.6    19.8
...
2020 08 14    22 44 20.9 +00 07 48   0.03025 1.0410   157.6    21.8    21.0
2020 08 15    22 42 53.7 +02 05 07   0.03294 1.0433   157.4    21.9    21.2
2020 08 16    22 41 36.6 +03 43 52   0.03567 1.0456   157.2    22.0    21.4
...
2020 08 22    22 36 04.2 +09 40 30   0.05284 1.0604   157.2    21.7    22.3
...
2020 08 30    22 31 57.7 +12 43 14   0.07746 1.0820   158.3    20.2    23.1
...
2020 09 14    22 29 56.1 +13 29 35   0.1298  1.1271   157.7    19.8    24.3

M. P. C. Staff               (C) Copyright 2020 MPC           M.P.E.C. 2020-P96




More information about the Iaude mailing list